Weather History for KHSI - October, 2013

Change the Weather History Date:

Wednesday, October 30, 2013

  Actual Average Record
Temperature  
Mean Temperature 41 °F 46 °F  
Max Temperature 49 °F 58 °F 87 °F (1937)
Min Temperature 32 °F 35 °F 9 °F (1913)
Degree Days  
Heating Degree Days 24 19  
Month to date heating degree days 393 378  
Since 1 July heating degree days 428 474  
Cooling Degree Days 0 0  
Month to date cooling degree days 15 11  
Year to date cooling degree days 1158 1074  
Moisture  
Dew Point 38 °F    
Average Humidity 89    
Maximum Humidity 100    
Minimum Humidity 77    
Precipitation  
Precipitation 0.01 in 0.04 in 1.87 in (1979)
Month to date precipitation 4.75 1.95  
Year to date precipitation 24.07 25.17  
Snow  
Snow 0.00 in 0.00 in 2.00 in (1923)
Month to date snowfall 0.0 0.9  
Since 1 July snowfall 0.0 1.1  
Since 1 September snowfall 0.0 1.1  
Snow Depth 0.00 in    
Sea Level Pressure  
Sea Level Pressure 29.89 in    
Wind  
Wind Speed 5 mph (North)    
Max Wind Speed 12 mph    
Max Gust Speed 15 mph    
Visibility 5 miles    
Events Fog , Rain , Thunderstorm    
T = Trace of Precipitation, MM = Missing Value Source: NWS Daily Summary

Daily Weather History Graph

Daily Weather History Graph

Search for Another Location

Airport or City:

Trip Planner

Search our weather history database for the weather conditions in past years. The results will help you decide how hot, cold, wet, or windy it might be!

Date:

Astronomy

Oct. 30, 2013 Rise Set
Actual Time 8:01 AM CDT 6:32 PM CDT
Civil Twilight 7:33 AM CDT 7:00 PM CDT
Nautical Twilight 7:01 AM CDT 7:32 PM CDT
Astronomical Twilight 6:29 AM CDT 8:04 PM CDT
Moon 3:51 AM CDT (10/30) 4:19 PM CDT (10/30)
Length of Visible Light 11h 26m
Length of Day
10h 30m
Waning Crescent, 17% of the Moon is Illuminated
Oct 30
Waning Crescent
Nov 3
New
Nov 9
First Quarter
Nov 17
Full
Nov 25
Last Quarter

Hourly Weather History & Observations

Time (CDT) Temp. Windchill Dew Point Humidity Pressure Visibility Wind Dir Wind Speed Gust Speed Precip Events Conditions
12:53 AM 39.9 °F 32.9 °F 37.9 °F 93% 30.02 in 10.0 mi North 11.5 mph - N/A   Overcast
1:53 AM 39.9 °F 33.9 °F 39.0 °F 97% 30.00 in 6.0 mi North 9.2 mph - N/A   Overcast
2:43 AM 39.2 °F 33.0 °F 37.4 °F 93% 29.97 in 2.5 mi North 9.2 mph - N/A   Overcast
2:53 AM 39.0 °F 31.8 °F 37.9 °F 96% 29.99 in 3.0 mi North 11.5 mph - N/A   Overcast
3:19 AM 39.2 °F 33.6 °F 37.4 °F 93% 29.95 in 2.5 mi North 8.1 mph - N/A   Overcast
3:53 AM 39.0 °F 32.3 °F 37.9 °F 96% 29.97 in 2.5 mi NNE 10.4 mph - N/A   Overcast
4:48 AM 39.2 °F 33.6 °F 37.4 °F 93% 29.92 in 1.8 mi North 8.1 mph - N/A   Overcast
4:53 AM 39.0 °F 32.8 °F 37.9 °F 96% 29.93 in 1.8 mi NNE 9.2 mph - N/A   Overcast
5:02 AM 39.2 °F 32.5 °F 37.4 °F 93% 29.90 in 1.8 mi NE 10.4 mph - 0.00 in Rain , Thunderstorm Light Rain
5:29 AM 37.4 °F 34.9 °F 37.4 °F 100% 29.94 in 1.8 mi NW 3.5 mph - 0.01 in Rain Light Rain
5:45 AM 39.2 °F 35.0 °F 37.4 °F 93% 29.92 in 2.0 mi ENE 5.8 mph - 0.01 in Rain Light Rain
5:53 AM 37.9 °F 33.5 °F 37.0 °F 97% 29.96 in 2.5 mi NNE 5.8 mph - 0.01 in   Overcast
6:18 AM 37.4 °F 31.4 °F 37.4 °F 100% 29.94 in 1.5 mi North 8.1 mph - N/A   Overcast
6:53 AM 37.9 °F 32.7 °F 37.0 °F 97% 29.96 in 1.5 mi NNW 6.9 mph - N/A   Overcast
6:58 AM 37.4 °F 31.4 °F 37.4 °F 100% 29.93 in 3.0 mi NNW 8.1 mph - N/A   Overcast
7:53 AM 37.0 °F 31.6 °F 36.0 °F 96% 29.95 in 10.0 mi NNE 6.9 mph - N/A   Overcast
8:46 AM 37.4 °F 32.1 °F 35.6 °F 93% 29.90 in 2.0 mi North 6.9 mph - N/A   Overcast
8:53 AM 37.9 °F 33.5 °F 36.0 °F 93% 29.93 in 2.0 mi NNE 5.8 mph - N/A   Overcast
9:00 AM 37.4 °F 32.8 °F 37.4 °F 100% 29.89 in 1.8 mi NNE 5.8 mph - N/A   Overcast
9:09 AM 37.4 °F 33.8 °F 37.4 °F 100% 29.90 in 2.0 mi North 4.6 mph - N/A   Overcast
9:24 AM 37.4 °F 32.8 °F 37.4 °F 100% 29.89 in 3.0 mi North 5.8 mph - N/A   Overcast
9:53 AM 39.0 °F 34.8 °F 37.0 °F 93% 29.94 in 6.0 mi NNW 5.8 mph - N/A   Overcast
10:53 AM 39.9 °F 35.8 °F 37.9 °F 93% 29.95 in 4.0 mi NNW 5.8 mph - N/A   Overcast
11:53 AM 41.0 °F 36.4 °F 39.0 °F 93% 29.91 in 5.0 mi NNW 6.9 mph - N/A   Overcast
12:53 PM 42.1 °F 38.4 °F 39.9 °F 92% 29.92 in 8.0 mi NW 5.8 mph - N/A   Overcast
1:53 PM 44.1 °F 40.1 °F 39.9 °F 85% 29.88 in 10.0 mi NNW 6.9 mph - N/A   Overcast
2:14 PM 44.6 °F 41.4 °F 41.0 °F 87% 29.84 in 10.0 mi NNW 5.8 mph - N/A   Overcast
2:53 PM 46.0 °F 41.9 °F 41.0 °F 83% 29.86 in 10.0 mi NW 8.1 mph - N/A   Overcast
3:01 PM 46.4 °F 42.4 °F 41.0 °F 81% 29.82 in 10.0 mi NW 8.1 mph - N/A   Overcast
3:53 PM 46.9 °F - 41.0 °F 80% 29.83 in 10.0 mi WNW 6.9 mph - N/A   Overcast
4:15 PM 46.4 °F 43.5 °F 39.2 °F 76% 29.80 in 10.0 mi NW 5.8 mph - N/A   Overcast
4:53 PM 48.0 °F - 41.0 °F 77% 29.81 in 10.0 mi North 4.6 mph - N/A   Scattered Clouds
5:53 PM 48.0 °F - 41.0 °F 77% 29.81 in 10.0 mi Calm Calm - N/A   Clear
6:53 PM 44.1 °F - 39.9 °F 85% 29.81 in 10.0 mi Calm Calm - N/A   Clear
7:53 PM 43.0 °F - 39.0 °F 86% 29.84 in 10.0 mi Calm Calm - N/A   Clear
8:29 PM 39.2 °F - 37.4 °F 93% 29.81 in 6.0 mi Calm Calm - N/A   Overcast
8:53 PM 39.9 °F 37.8 °F 37.0 °F 89% 29.85 in 10.0 mi WSW 3.5 mph - N/A   Overcast
9:18 PM 39.2 °F - 37.4 °F 93% 29.80 in 8.0 mi Calm Calm - N/A   Scattered Clouds
9:41 PM 37.4 °F 33.8 °F 35.6 °F 93% 29.81 in 1.8 mi NW 4.6 mph - N/A   Clear
9:53 PM 37.0 °F - 35.1 °F 93% 29.84 in 1.5 mi Calm Calm - N/A   Partly Cloudy
9:59 PM 37.4 °F 34.9 °F 35.6 °F 93% 29.80 in 0.8 mi NNW 3.5 mph - N/A   Mist
10:53 PM 36.0 °F - 35.1 °F 97% 29.83 in 0.2 mi Calm Calm - N/A Fog Fog
11:53 PM 32.0 °F - 32.0 °F 100% 29.81 in 0.2 mi Calm Calm - N/A Fog Fog